Regional Weather Roundup
Issued by NWS

Home | Current Version | Previous Version | Text Only | Print | Product List | Glossary Off
Versions: 1 2 3 4 5 6 7 8 9 10 11 12 13 14 15 16 17 18 19 20 21 22 23 24 25 26 27 28 29 30 31 32 33 34 35 36 37 38 39 40 41 42 43 44 45 46 47 48 49 50

795
ASUS43 KLMK 291110
RWRKY
KENTUCKY REGIONAL WEATHER ROUNDUP
NATIONAL WEATHER SERVICE LOUISVILLE KY
700 AM EDT THU SEP 29 2016

NOTE "FAIR" INDICATES FEW OR NO CLOUDS BELOW 12,000 FEET
WITH NO SIGNIFICANT WEATHER AND/OR OBSTRUCTIONS TO VISIBILITY.

KYZ001>023-026-027-061>063-070>075-291200-
WESTERN AND SOUTH CENTRAL KENTUCKY

CITY           SKY/WX    TMP DP  RH WIND       PRES   REMARKS
PADUCAH        CLEAR     52  48  86 W5        30.07S
HENDERSON      CLOUDY    52  46  82 W5        30.04R
OWENSBORO      MOCLDY   N/A N/A N/A SW9       30.04
HOPKINSVILLE   NOT AVBL
BOWLING GREEN  CLEAR     49  46  90 SW3       30.04R
GLASGOW        CLEAR    N/A N/A N/A CALM      30.03R
$$

KYZ024-025-028>034-038-045-046-053-291200-
NORTH CENTRAL KENTUCKY

CITY           SKY/WX    TMP DP  RH WIND       PRES   REMARKS
LOUISVILLE/SDF CLOUDY    53  50  89 SW5       30.00S
LOUISVILLE/LOU CLOUDY    54  50  86 SW3       30.01R
FORT KNOX      PTCLDY    46  46 100 SW2       29.99S FOG
$$

KYZ035>037-039>044-047>052-055>060-089>105-291200-
NORTHEAST KENTUCKY

CITY           SKY/WX    TMP DP  RH WIND       PRES   REMARKS
LEXINGTON      CLOUDY    53  50  89 CALM      30.01R
COVINGTON      CLOUDY    53  53 100 CALM      29.99R FOG
FRANKFORT      CLOUDY    53  50  89 CALM      29.99S
$$

KYZ054-064>069-076>088-106>120-291200-
SOUTHEAST KENTUCKY

CITY           SKY/WX    TMP DP  RH WIND       PRES   REMARKS
JACKSON        CLOUDY    55  54  96 VRB3      30.00R
LONDON         MOCLDY    53  50  89 W5        30.01R
SOMERSET       MOCLDY    50  50 100 CALM      30.02S FOG
MIDDLESBORO    CLOUDY    57  56  97 CALM      29.99S
MONTICELLO     MOSUNNY   52  52 100 W12       30.03S
$$





USA.gov is the U.S. government's official web portal to all federal, state and local government web resources and services.